TimeEDT,TemperatureF,Dew PointF,Humidity,Sea Level PressureIn,VisibilityMPH,Wind Direction,Wind SpeedMPH,Gust SpeedMPH,PrecipitationIn,Events,Conditions,WindDirDegrees,DateUTC
12:15 AM,70.7,55.2,58,30.04,10.0,Calm,Calm,-,N/A,,Clear,0,2013-08-06 04:15:00
12:35 AM,70.5,55.4,59,30.04,10.0,Calm,Calm,-,N/A,,Clear,0,2013-08-06 04:35:00
12:55 AM,69.8,55.8,61,30.04,10.0,Calm,Calm,-,N/A,,Clear,0,2013-08-06 04:55:00
1:15 AM,69.3,55.8,62,30.05,10.0,Calm,Calm,-,N/A,,Clear,0,2013-08-06 05:15:00
1:35 AM,68.9,55.9,63,30.05,10.0,Calm,Calm,-,N/A,,Clear,0,2013-08-06 05:35:00
1:55 AM,68.7,56.3,64,30.05,10.0,Calm,Calm,-,N/A,,Clear,0,2013-08-06 05:55:00
2:15 AM,67.5,56.5,68,30.05,10.0,WNW,3.5,-,N/A,,Clear,300,2013-08-06 06:15:00
2:35 AM,68.0,56.3,66,30.05,10.0,Calm,Calm,-,N/A,,Clear,0,2013-08-06 06:35:00
2:55 AM,67.8,55.9,66,30.05,10.0,Calm,Calm,-,N/A,,Clear,0,2013-08-06 06:55:00
3:15 AM,67.1,56.3,68,30.05,10.0,West,3.5,-,N/A,,Clear,270,2013-08-06 07:15:00
3:35 AM,65.1,57.2,75,30.05,10.0,WNW,3.5,-,N/A,,Clear,290,2013-08-06 07:35:00
3:55 AM,65.1,57.4,76,30.06,10.0,Calm,Calm,-,N/A,,Clear,0,2013-08-06 07:55:00
4:15 AM,65.7,56.8,73,30.06,10.0,Calm,Calm,-,N/A,,Clear,0,2013-08-06 08:15:00
4:35 AM,64.4,57.7,79,30.06,10.0,WNW,3.5,-,N/A,,Clear,290,2013-08-06 08:35:00
4:55 AM,64.8,57.9,78,30.06,10.0,WNW,4.6,-,N/A,,Clear,290,2013-08-06 08:55:00
5:15 AM,64.4,57.6,78,30.06,10.0,WNW,3.5,-,N/A,,Clear,300,2013-08-06 09:15:00
5:35 AM,64.0,58.1,81,30.06,10.0,Calm,Calm,-,N/A,,Clear,0,2013-08-06 09:35:00
5:55 AM,63.5,57.6,81,30.07,10.0,WNW,3.5,-,N/A,,Clear,290,2013-08-06 09:55:00
6:15 AM,63.3,57.2,80,30.07,10.0,Calm,Calm,-,N/A,,Clear,0,2013-08-06 10:15:00
6:35 AM,64.0,56.7,77,30.08,10.0,Calm,Calm,-,N/A,,Clear,0,2013-08-06 10:35:00
6:55 AM,64.9,56.7,74,30.08,10.0,Calm,Calm,-,N/A,,Clear,0,2013-08-06 10:55:00
7:15 AM,66.2,57.2,73,30.08,10.0,Calm,Calm,-,N/A,,Clear,0,2013-08-06 11:15:00
7:35 AM,67.6,57.2,69,30.08,10.0,Calm,Calm,-,N/A,,Clear,0,2013-08-06 11:35:00
7:55 AM,69.8,56.3,62,30.08,10.0,Calm,Calm,-,N/A,,Clear,0,2013-08-06 11:55:00
8:15 AM,71.2,54.5,55,30.08,10.0,NNE,5.8,-,N/A,,Clear,30,2013-08-06 12:15:00
8:35 AM,72.5,54.1,52,30.09,10.0,NE,3.5,-,N/A,,Clear,40,2013-08-06 12:35:00
8:55 AM,73.4,55.0,52,30.09,10.0,Calm,Calm,-,N/A,,Clear,0,2013-08-06 12:55:00
9:15 AM,73.8,55.0,52,30.09,10.0,ESE,3.5,-,N/A,,Clear,110,2013-08-06 13:15:00
9:35 AM,75.2,55.4,50,30.09,10.0,Calm,Calm,-,N/A,,Clear,0,2013-08-06 13:35:00
9:55 AM,75.6,54.9,48,30.09,10.0,Calm,Calm,-,N/A,,Clear,0,2013-08-06 13:55:00
10:15 AM,76.3,54.3,46,30.10,10.0,SE,3.5,-,N/A,,Clear,140,2013-08-06 14:15:00
10:35 AM,77.5,52.9,42,30.10,10.0,SE,3.5,-,N/A,,Clear,140,2013-08-06 14:35:00
10:55 AM,78.3,53.1,41,30.10,10.0,South,4.6,-,N/A,,Clear,180,2013-08-06 14:55:00
11:15 AM,79.5,49.3,35,30.10,10.0,SE,3.5,-,N/A,,Clear,140,2013-08-06 15:15:00
11:35 AM,79.2,46.6,32,30.10,10.0,SSE,6.9,-,N/A,,Scattered Clouds,160,2013-08-06 15:35:00
11:55 AM,80.1,49.6,34,30.11,10.0,South,8.1,-,N/A,,Clear,170,2013-08-06 15:55:00
12:15 PM,79.7,48.7,34,30.11,10.0,WSW,3.5,-,N/A,,Clear,240,2013-08-06 16:15:00
12:35 PM,80.6,48.7,33,30.11,10.0,SSE,8.1,-,N/A,,Clear,160,2013-08-06 16:35:00
12:55 PM,81.5,50.0,33,30.11,10.0,SSE,9.2,-,N/A,,Clear,150,2013-08-06 16:55:00
1:15 PM,81.1,49.1,33,30.10,10.0,SE,5.8,-,N/A,,Clear,140,2013-08-06 17:15:00
1:35 PM,80.4,52.0,37,30.10,10.0,SSE,10.4,-,N/A,,Clear,150,2013-08-06 17:35:00
1:55 PM,81.3,52.0,36,30.09,10.0,SE,6.9,17.3,N/A,,Clear,130,2013-08-06 17:55:00
2:15 PM,80.8,50.7,35,30.10,10.0,SSE,10.4,16.1,N/A,,Scattered Clouds,150,2013-08-06 18:15:00
2:35 PM,80.4,50.9,36,30.10,10.0,SE,10.4,-,N/A,,Mostly Cloudy,140,2013-08-06 18:35:00
2:55 PM,81.5,51.4,35,30.09,10.0,ESE,10.4,17.3,N/A,,Scattered Clouds,120,2013-08-06 18:55:00
3:15 PM,81.7,52.5,36,30.09,10.0,SSE,11.5,16.1,N/A,,Scattered Clouds,150,2013-08-06 19:15:00
3:35 PM,82.0,52.5,36,30.09,10.0,SE,13.8,-,N/A,,Scattered Clouds,140,2013-08-06 19:35:00
3:55 PM,81.3,51.8,36,30.08,10.0,SE,12.7,-,N/A,,Clear,130,2013-08-06 19:55:00
4:15 PM,81.5,52.3,36,30.09,10.0,SE,12.7,18.4,N/A,,Clear,140,2013-08-06 20:15:00
4:35 PM,81.7,52.2,36,30.09,10.0,SE,10.4,-,N/A,,Clear,140,2013-08-06 20:35:00
4:55 PM,80.2,51.8,37,30.09,10.0,South,9.2,16.1,N/A,,Clear,180,2013-08-06 20:55:00
5:15 PM,79.9,52.3,38,30.10,10.0,South,9.2,-,N/A,,Clear,190,2013-08-06 21:15:00
5:35 PM,79.5,53.1,40,30.10,10.0,South,10.4,-,N/A,,Clear,170,2013-08-06 21:35:00
5:55 PM,78.8,52.5,40,30.09,10.0,South,9.2,-,N/A,,Clear,180,2013-08-06 21:55:00
6:15 PM,77.7,53.1,42,30.10,10.0,South,10.4,-,N/A,,Mostly Cloudy,180,2013-08-06 22:15:00
6:35 PM,77.0,52.3,42,30.11,10.0,South,8.1,-,N/A,,Overcast,190,2013-08-06 22:35:00
6:55 PM,76.5,53.8,45,30.11,10.0,South,8.1,-,N/A,,Overcast,180,2013-08-06 22:55:00
7:15 PM,76.5,54.1,46,30.11,10.0,South,5.8,-,N/A,,Overcast,180,2013-08-06 23:15:00
7:35 PM,75.9,54.5,47,30.11,10.0,South,5.8,-,N/A,,Overcast,170,2013-08-06 23:35:00
7:55 PM,75.6,56.3,51,30.11,10.0,Calm,Calm,-,N/A,,Overcast,0,2013-08-06 23:55:00
8:15 PM,75.2,56.7,52,30.11,10.0,South,5.8,-,N/A,,Overcast,180,2013-08-07 00:15:00
8:35 PM,75.2,56.1,51,30.12,10.0,SSE,4.6,-,N/A,,Overcast,160,2013-08-07 00:35:00
8:55 PM,75.2,56.5,52,30.12,10.0,SSE,4.6,-,N/A,,Overcast,160,2013-08-07 00:55:00
9:15 PM,75.2,57.0,53,30.12,10.0,SSE,4.6,-,N/A,,Overcast,160,2013-08-07 01:15:00
9:35 PM,74.5,57.4,55,30.12,10.0,South,4.6,-,N/A,,Overcast,170,2013-08-07 01:35:00
9:55 PM,74.3,57.9,57,30.12,10.0,SSE,4.6,-,N/A,,Overcast,160,2013-08-07 01:55:00
10:15 PM,74.1,59.4,60,30.12,10.0,South,5.8,-,N/A,,Overcast,170,2013-08-07 02:15:00
10:35 PM,73.8,59.9,62,30.12,10.0,SSE,4.6,-,N/A,,Overcast,160,2013-08-07 02:35:00
10:55 PM,73.6,60.4,63,30.12,10.0,South,3.5,-,N/A,,Overcast,170,2013-08-07 02:55:00
11:15 PM,73.4,61.0,65,30.13,10.0,South,3.5,-,N/A,,Overcast,190,2013-08-07 03:15:00
11:35 PM,73.0,62.2,69,30.13,10.0,Calm,Calm,-,N/A,,Overcast,0,2013-08-07 03:35:00
11:55 PM,72.7,62.8,71,30.13,10.0,Calm,Calm,-,N/A,,Overcast,0,2013-08-07 03:55:00